Miscellaneous Local Product
Issued by NWS North Platte, NE

Home | Current Version | Previous Version | Text Only | Print | Product List | Glossary On
Versions: 1 2 3 4 5 6 7 8 9 10 11 12 13 14 15 16 17 18 19 20 21 22 23 24 25 26 27 28 29 30 31 32 33 34 35 36 37 38 39 40 41 42 43 44 45 46 47 48 49 50
263
AXUS43 KLBF 020110
MISLBF


WESTERN AND NORTH CENTRAL NEBRASKA HOURLY WEATHER ROUNDUP
NATIONAL WEATHER SERVICE NORTH PLATTE NE
700 PM CST THU DEC 01 2016

NOTE: "FAIR" INDICATES FEW OR NO CLOUDS BELOW 12,000 FEET WITH NO
SIGNIFICANT WEATHER AND/OR OBSTRUCTIONS TO VISIBILITY.

NOTE: STATIONS NOT REPORTING VARIABLES SUCH AS SKY/WEATHER OR
PRESSURE ARE PROVIDED BY RAWS AND APRS NETWORKS AND ARE NOT UNDER
NATIONAL WEATHER SERVICE QUALITY CONTROL.

...OBSERVATIONS IN AND NEAR THE EASTERN PANHANDLE OF NEBRASKA...

CITY           SKY/WX    TMP DP  RH WIND       PRES   REMARKS
PINE RIDGE     CLOUDY    29  23  78 NE6       29.95R WCI  23
CHADRON        CLOUDY    35  21  56 NW9       29.97R WCI  28
ALLIANCE       CLOUDY    27  15  61 CALM      29.95R
SIDNEY         CLEAR     26  12  55 N3        29.96R
CRESCENT LAKE    N/A     50  14  23 N3          N/A
$$

...OBSERVATIONS IN NORTHERN NEBRASKA AND FAR SOUTHERN SOUTH DAKOTA...

CITY           SKY/WX    TMP DP  RH WIND       PRES   REMARKS
WINNER         FAIR      29  25  85 W3        30.02R
VALENTINE      CLOUDY    29  22  75 N5        30.00R WCI  24
THEDFORD       CLOUDY    33  19  56 CALM      29.98R
AINSWORTH      CLOUDY    27  24  89 N3        29.99S
O`NEILL        CLOUDY    30  26  86 CALM      30.02S
ORD            CLOUDY    33  22  63 CALM      30.00R
BROKEN BOW     CLEAR     30  21  69 N6        29.98R WCI  24
VALENTINE NWR    N/A     30  22  72 NE5         N/A  WCI  25
BUTTE            N/A     29  26  89 NW3         N/A
HALSEY           N/A     34  18  52 CALM        N/A
CHAMBERS         N/A     30  22  70 CALM        N/A
EWING            N/A     30  26  85 CALM        N/A
$$

...OBSERVATIONS IN SOUTHWEST NEBRASKA AND FAR NORTHEAST COLORADO...

CITY           SKY/WX    TMP DP  RH WIND       PRES   REMARKS
WRAY           FAIR      28  12  50 NW8       29.97R WCI  20
HOLYOKE        FAIR      32  12  43 N5        29.97R WCI  27
IMPERIAL       CLEAR     33  11  39 NW9       29.98R WCI  25
OGALLALA       CLEAR     28  14  56 W6        29.97S WCI  21
NORTH PLATTE   CLEAR     26  16  65 NW3       29.97R
MCCOOK         CLEAR     34  16  47 SE6       29.98R WCI  29
LEXINGTON      CLEAR     29  19  66 CALM      29.98R
STAPLETON        N/A     30  13  48 CALM        N/A
GOTHENBURG       N/A     33  17  51 CALM        N/A
CALLAWAY         N/A     29  19  64 E6          N/A  WCI  23
$$

...OBSERVATIONS IN CENTRAL LINCOLN COUNTY AREA...

CITY           SKY/WX    TMP DP  RH WIND       PRES   REMARKS
N.P. AIRPORT   CLEAR     26  16  65 NW3       29.97R
N.P. DOWNTOWN    N/A     31  17  56 CALM        N/A
N.P. SOUTHEAST   N/A     32  17  53 CALM        N/A
N.P. HILLCREST   N/A     33  17  51 N3          N/A
$$

...SOME OBSERVATIONS FROM AROUND THE REGION...

CITY           SKY/WX    TMP DP  RH WIND       PRES   REMARKS
LARAMIE        CLOUDY    19  13  77 NE6       29.91R WCI  11
CHEYENNE       CLOUDY    27  15  61 NW3       29.94R
DENVER         PTCLDY    27   7  42 E8        29.93R WCI  19
AKRON          CLEAR     30  10  43 CALM      29.96R
SCOTTSBLUFF    CLOUDY    28  11  48 CALM      29.96R
RAPID CITY     CLEAR     21  17  84 N6        29.98R WCI  13
BISMARCK       CLOUDY    29  25  85 NE5       30.06R WCI  24
PIERRE         CLOUDY    29  27  92 NW5       30.02R WCI  24
SIOUX FALLS    CLOUDY    33  31  92 NW6       30.01R WCI  28
OMAHA          CLOUDY    36  27  69 N3        30.04S
GRAND ISLAND   CLEAR     28  23  81 E3        30.01R
KANSAS CITY    CLEAR     38  23  55 SW5       30.05R WCI  34
WICHITA        CLEAR     44  22  41 NE8       30.02R
OKLAHOMA CITY  PTCLDY    47  28  47 SE5       29.97R
DALLAS         PTCLDY    56  26  31 SE7       29.99S
AMARILLO       CLEAR     35  15  44 NE8       29.96R WCI  29
DODGE CITY     CLEAR     36  11  35 E6        30.01R WCI  31
HAYS           CLEAR     35  16  45 SE3       30.02R
GOODLAND       CLEAR     31   9  39 SW7       29.97R WCI  24
$$




USA.gov is the U.S. government's official web portal to all federal, state and local government web resources and services.